Skip Page Navigation
NASA JPL Caltech
NASA Logo - Jet Propulsion Laboratory + View the NASA Portal
+ Near-Earth Object (NEO) Program
Search JPL
JPL Home Earth Solar System Stars & Galaxies Technology
JPL Solar System Dynamics
BODIES ORBITS EPHEMERIDES TOOLS PHYSICAL DATA DISCOVERY FAQ SITE MAP
JPL Small-Body Database Browser
Search: [ help ]  
79086 Gorgasali (1977 RD)
Classification: Main-belt Asteroid          SPK-ID: 2079086
Ephemeris | Orbit Diagram | Orbital Elements | Physical Parameters | Discovery Circumstances | Close-Approach Data ]

[ show orbit diagram ]
Orbital Elements at Epoch 2457000.5 (2014-Dec-09.0) TDB
Reference: JPL 6 (heliocentric ecliptic J2000)
 Element Value Uncertainty (1-sigma)   Units 
e .2787096274656685 1.0161e-07  
a 2.774556302410573 2.7962e-08 AU
q 2.0012607489832 2.8707e-07 AU
i 33.11491167235961 2.0153e-05 deg
node 343.4036698391813 1.4256e-05 deg
peri 302.0902710014123 3.323e-05 deg
M 46.45680064961974 2.7485e-05 deg
tp 2456782.661048937929
(2014-May-05.16104894)
0.00012923 JED
period 1688.063346716654
4.62
2.5518e-05
6.986e-08
d
yr
n .2132621389476961 3.2239e-09 deg/d
Q 3.547851855837946 3.5755e-08 AU
  Orbit Determination Parameters
   # obs. used (total)      262  
   data-arc span      13557 days (37.12 yr)  
   first obs. used      1977-08-18  
   last obs. used      2014-09-30  
   planetary ephem.      DE431  
   SB-pert. ephem.      SB431-BIG16  
   condition code      0  
   fit RMS      .51918  
   data source      ORB  
   producer      Otto Matic  
   solution date      2014-Oct-09 16:34:07  

Additional Information
 Earth MOID = 1.11353 AU 
 T_jup = 3.050 
[ show covariance matrix ]

Ephemeris | Orbit Diagram | Orbital Elements | Physical Parameters | Discovery Circumstances | Close-Approach Data ]

Physical Parameter Table
Parameter Symbol Value Units Sigma Reference Notes
absolute magnitude H 14.4 mag n/a MPO259817  

79086 Gorgasali           Discovered 1977 Sept. 4 by R. M. West at the European Southern Observatory.
King Vakhtang Gorgasali (440-502) of Kartli (Iberia) was the founder of Tbilisi, the capital of Georgia. Canonized by the Georgian Orthodox Church, he is highly admired and respected in his adoptive country.
NOTE: some special characters may not display properly (any characters within {} are an attempt to place the proper accent above a character)
Reference: 20071124/MPCPages.arcLast Updated: 2007-11-26

[ show close-approach data ]
Alternate Designations
 1977 RD = 1990 EQ9 = 1991 RL 
Ephemeris | Orbit Diagram | Orbital Elements | Physical Parameters | Discovery Circumstances | Close-Approach Data ]
ABOUT SSD CREDITS/AWARDS PRIVACY/COPYRIGHT GLOSSARY LINKS
FirstGov 2014-Oct-24 10:15 UT
(server date/time)  
NASA Home Page
Site Manager:   Donald K. Yeomans
Webmaster  Alan B. Chamberlin